Location: Caltech
(34.1382°N, 118.1253°W)
Time: 15:32:40
(UTC-07:00)

Hamsat - Visible Passes

Search period start: 01 April 2015 00:00
Search period end: 11 April 2015 00:00
Orbit: 591 x 623 km, 97.6° (Epoch: 31 March)

Date Brightness Start Highest point End Pass type
(mag) Time Alt. Az. Time Alt. Az. Time Alt. Az.
01 Apr ? 06:07:01 10° NNE 06:11:19 61° E 06:15:35 10° S visible
04 Apr ? 05:12:59 10° ENE 05:14:55 13° E 05:17:05 10° ESE visible
05 Apr ? 05:25:20 10° NE 05:28:20 19° E 05:31:28 10° SE visible
06 Apr ? 05:38:04 10° NE 05:41:42 27° E 05:45:24 10° SSE visible
07 Apr ? 05:51:00 10° NNE 05:55:03 39° E 05:59:03 10° SSE visible
08 Apr ? 06:04:04 10° NNE 06:08:20 57° E 06:12:31 10° S visible
